INTELSAT 10-02          
1 28358U 04022A   19265.73868706 -.00000019  00000-0  00000+0 0  9992
2 28358   0.0125 208.5620 0003168 346.5520  71.1518  1.00271923 55965
BREEZE-M DEB [TANK]     
1 28359U 04022B   19265.09195213  .00001511  00000-0  15907-3 0  9991
2 28359  49.5239 297.1338 4661218 215.0501 102.9042  6.22878703336694
BREEZE-M R/B            
1 28360U 04022C   19265.26369327 -.00000232  00000-0  00000+0 0  9995
2 28360  24.1495 108.6503 5914286  42.7128 350.6909  2.01474610112368